Location: Castiglione Fibocchi
(43.5333°N, 11.7667°E)
Time: 18:59:01
(UTC+00:00)

Cosmos 2228 - Pass Details

Date: 15 August 2020
Orbit: 588 x 619 km, 82.5° (Epoch: 20 September)

Event Time Altitude Azimuth Distance (km) Brightness Sun altitude
Exits shadow 01:59:30 30° 152° (SSE) 1,105 4.1 -21.7°
Maximum altitude 02:01:19 51° 94° (E) 783 3.7 -21.4°
Drops below altitude 10° 02:05:37 10° 18° (NNE) 1,995 6.6 -20.9°
Sets 02:07:53 0° 14° (NNE) 2,906 7.5 -20.6°
